This is the latest recevied weather packets stored in our database for station/object KC8ZBC. If no packets are shown the sender has not sent any weather packets the latest 1 day(s).
| Time | Temp. | Humidity | Pressure | Rain* | Wind** | Luminosity | Snow |
|---|---|---|---|---|---|---|---|
| 1777980749 | 12.78° C | 81% | 978.6 hPa | 0 mm | 0 m/s | 11 W/m² | - |
| 1777980445 | 13.33° C | 81% | 978.2 hPa | 0 mm | 0 m/s | 16 W/m² | - |
| 1777980143 | 13.33° C | 81% | 978 hPa | 0 mm | 0.45 m/s, 353° | 18 W/m² | - |
| 1777979843 | 13.33° C | 81% | 977.9 hPa | 0 mm | 0.45 m/s, 20° | 24 W/m² | - |
| 1777979539 | 12.78° C | 81% | 978 hPa | 0 mm | 0.45 m/s, 286° | 21 W/m² | - |
| 1777979235 | 12.78° C | 83% | 977.8 hPa | 0 mm | 0 m/s | 22 W/m² | - |
| 1777978933 | 12.78° C | 83% | 977.6 hPa | 0 mm | 0.45 m/s, 240° | 16 W/m² | - |
| 1777978629 | 12.78° C | 84% | 977.4 hPa | 0 mm | 0 m/s | 11 W/m² | - |
| 1777978325 | 12.78° C | 84% | 977.5 hPa | 0 mm | 0.45 m/s, 277° | 11 W/m² | - |
| 1777978022 | 12.78° C | 85% | 977.5 hPa | 0 mm | 0 m/s | 6 W/m² | - |
| 1777977719 | 12.78° C | 86% | 977.6 hPa | 0 mm | 0 m/s | 2 W/m² | - |
| 1777977415 | 12.78° C | 86% | 977.5 hPa | 0 mm | 0 m/s | 1 W/m² | - |
| 1777977113 | 12.78° C | 87% | 977.5 hPa | 0 mm | 0 m/s | 0 W/m² | - |
| 1777976810 | 12.78° C | 86% | 977.2 hPa | 0 mm | 0 m/s | 0 W/m² | - |
| 1777976508 | 12.78° C | 86% | 977 hPa | 0 mm | 0 m/s | 0 W/m² | - |
| 1777976207 | 12.78° C | 87% | 976.7 hPa | 0 mm | 1.34 m/s, 190° | 0 W/m² | - |
| 1777975903 | 13.33° C | 87% | 976.5 hPa | 0 mm | 0 m/s | 0 W/m² | - |
| 1777975599 | 13.33° C | 87% | 976.6 hPa | 0 mm | 0 m/s | 0 W/m² | - |
| 1777975296 | 13.33° C | 87% | 976.6 hPa | 0 mm | 0 m/s | 0 W/m² | - |
| 1777974992 | 13.33° C | 86% | 976.4 hPa | 0 mm | 0 m/s | 0 W/m² | - |
| 1777974689 | 13.33° C | 86% | 976.4 hPa | 0 mm | 0.89 m/s, 208° | 0 W/m² | - |
| 1777974385 | 13.89° C | 86% | 976.4 hPa | 0 mm | 0.89 m/s, 301° | 0 W/m² | - |
| 1777974082 | 13.89° C | 86% | 976.1 hPa | 0 mm | 0 m/s | 0 W/m² | - |
| 1777973778 | 13.89° C | 85% | 976.3 hPa | 0 mm | 1.34 m/s, 192° | 0 W/m² | - |
| 1777973475 | 13.89° C | 85% | 976.4 hPa | 0 mm | 0.89 m/s, 208° | 0 W/m² | - |
* Rain latest hour (hover to see other rain measurements)
** Current wind speed in m/s (hover to see current wind gust speed)